Weather History for Maxwell AFB, AL

Change the Weather History Date:

Friday, January 11, 2013

  Actual Average Record
Temperature  
Mean Temperature 68 °F -  
Max Temperature 79 °F 56 °F 79 °F (2013)
Min Temperature 57 °F 36 °F 23 °F (2004)
Cooling Degree Days 3    
Growing Degree Days 18 (Base 50)    
Moisture  
Dew Point 61 °F    
Average Humidity 92    
Maximum Humidity 100    
Minimum Humidity 59    
Precipitation  
Precipitation 0.10 in - - ()
Sea Level Pressure  
Sea Level Pressure 30.13 in    
Wind  
Wind Speed 2 mph (SSE)    
Max Wind Speed 13 mph    
Max Gust Speed 24 mph    
Visibility 6 miles    
Events Fog , Rain    
Averages and records for this station are not official NWS values.
T = Trace of Precipitation, MM = Missing Value Source: NWS Daily Summary

Daily Weather History Graph

Daily Weather History Graph

Search for Another Location

Airport:

Trip Planner

Search our weather history database for the weather conditions in past years. The results will help you decide how hot, cold, wet, or windy it might be!

Date:

Astronomy

Jan. 11, 2013 Rise Set
Actual Time 6:47 AM CST 4:59 PM CST
Civil Twilight 6:20 AM CST 5:26 PM CST
Nautical Twilight 5:50 AM CST 5:56 PM CST
Astronomical Twilight 5:21 AM CST 6:26 PM CST
Moon 6:22 AM CST (1/11) 5:13 PM CST (1/11)
Length of Visible Light 11h 05m
Length of Day
10h 12m
Waning Crescent, 0% of the Moon is Illuminated
Jan 11
Waning Crescent
Jan 11
New
Jan 18
First Quarter
Jan 26
Full
Feb 3
Last Quarter

Hourly Weather History & Observations

Time (CST) Temp. Dew Point Humidity Pressure Visibility Wind Dir Wind Speed Gust Speed Precip Events Conditions
12:30 AM 68.0 °F 60.8 °F 78% 30.12 in 10.0 mi WSW 4.6 mph - N/A   Light Drizzle
12:48 AM 66.2 °F 60.8 °F 83% 30.12 in 10.0 mi South 3.5 mph - N/A   Mostly Cloudy
12:55 AM 66.6 °F 60.8 °F 82% 30.12 in 10.0 mi Calm Calm - 0.00 in   Mostly Cloudy
1:39 AM 62.6 °F 60.8 °F 94% 30.12 in 10.0 mi Calm Calm - N/A   Light Drizzle
1:48 AM 62.6 °F 60.8 °F 94% 30.11 in 10.0 mi Calm Calm - N/A   Partly Cloudy
1:55 AM 62.4 °F 59.5 °F 90% 30.12 in 10.0 mi Calm Calm - 0.00 in   Partly Cloudy
2:54 AM 59.0 °F 59.0 °F 100% 30.12 in 1.2 mi Calm Calm - N/A   Clear
2:55 AM 59.5 °F 58.6 °F 97% 30.12 in 1.2 mi Calm Calm - N/A   Clear
2:57 AM 59.0 °F 59.0 °F 100% 30.12 in 1.0 mi Calm Calm - N/A   Clear
3:00 AM 57.2 °F 57.2 °F 100% 30.13 in 0.8 mi South 3.5 mph - N/A   Clear
3:04 AM 57.2 °F 57.2 °F 100% 30.12 in 1.0 mi Calm Calm - N/A   Clear
3:06 AM 57.2 °F 57.2 °F 100% 30.12 in 0.8 mi SSE 3.5 mph - N/A   Clear
3:11 AM 57.2 °F 57.2 °F 100% 30.12 in 0.8 mi SE 3.5 mph - N/A   Clear
3:18 AM 59.0 °F 59.0 °F 100% 30.12 in 0.5 mi Calm Calm - N/A Fog Fog
3:20 AM 59.0 °F 59.0 °F 100% 30.12 in 0.8 mi Calm Calm - N/A   Clear
3:21 AM 59.0 °F 59.0 °F 100% 30.12 in 0.8 mi Calm Calm - N/A   Partly Cloudy
3:23 AM 59.0 °F 59.0 °F 100% 30.12 in 1.0 mi Calm Calm - N/A   Partly Cloudy
3:29 AM 59.0 °F 59.0 °F 100% 30.12 in 3.0 mi Calm Calm - N/A   Partly Cloudy
3:32 AM 59.0 °F 59.0 °F 100% 30.12 in 2.5 mi Calm Calm - N/A   Partly Cloudy
3:35 AM 59.0 °F 57.2 °F 94% 30.12 in 1.8 mi Calm Calm - N/A   Partly Cloudy
3:38 AM 59.0 °F 57.2 °F 94% 30.12 in 1.2 mi Calm Calm - N/A   Partly Cloudy
3:39 AM 59.0 °F 57.2 °F 94% 30.11 in 1.0 mi Calm Calm - N/A   Partly Cloudy
3:43 AM 57.2 °F 57.2 °F 100% 30.11 in 1.2 mi Calm Calm - N/A   Scattered Clouds
3:45 AM 57.2 °F 57.2 °F 100% 30.12 in 1.0 mi Calm Calm - N/A   Scattered Clouds
3:47 AM 59.0 °F 57.2 °F 94% 30.12 in 1.2 mi Calm Calm - N/A   Mostly Cloudy
3:48 AM 59.0 °F 57.2 °F 94% 30.11 in 1.5 mi Calm Calm - N/A   Mostly Cloudy
3:50 AM 59.0 °F 57.2 °F 94% 30.11 in 2.0 mi Calm Calm - N/A   Mostly Cloudy
3:55 AM 58.1 °F 57.7 °F 99% 30.11 in 2.5 mi Calm Calm - N/A   Mostly Cloudy
3:58 AM 57.2 °F 57.2 °F 100% 30.11 in 1.8 mi Calm Calm - N/A   Mostly Cloudy
3:59 AM 57.2 °F 57.2 °F 100% 30.11 in 1.5 mi Calm Calm - N/A   Mostly Cloudy
4:01 AM 57.2 °F 57.2 °F 100% 30.11 in 1.5 mi Calm Calm - N/A   Mostly Cloudy
4:02 AM 59.0 °F 57.2 °F 94% 30.11 in 1.8 mi Calm Calm - N/A   Mostly Cloudy
4:05 AM 59.0 °F 59.0 °F 100% 30.11 in 2.0 mi Calm Calm - N/A   Mostly Cloudy
4:07 AM 59.0 °F 57.2 °F 94% 30.11 in 3.0 mi Calm Calm - N/A   Overcast
4:55 AM 58.6 °F 58.5 °F 99% 30.11 in 10.0 mi ESE 3.5 mph - N/A   Overcast
5:45 AM 59.0 °F 59.0 °F 100% 30.14 in 10.0 mi Calm Calm - N/A Rain Light Rain
5:55 AM 59.7 °F 59.5 °F 99% 30.14 in 4.0 mi NNW 3.5 mph - 0.03 in Rain Light Rain
6:19 AM 60.8 °F 59.0 °F 94% 30.15 in 10.0 mi Calm Calm - N/A   Overcast
6:55 AM 60.8 °F 60.4 °F 99% 30.15 in 10.0 mi Calm Calm - 0.00 in   Overcast
7:55 AM 61.5 °F 61.3 °F 99% 30.16 in 10.0 mi Calm Calm - N/A   Overcast
8:20 AM 62.6 °F 62.6 °F 100% 30.18 in 10.0 mi Calm Calm - N/A Rain Light Rain
8:30 AM 62.6 °F 62.6 °F 100% 30.19 in 10.0 mi Calm Calm - N/A   Overcast
8:31 AM 62.6 °F 62.6 °F 100% 30.19 in 10.0 mi Calm Calm - N/A   Light Drizzle
8:50 AM 62.6 °F 62.6 °F 100% 30.19 in 2.5 mi Calm Calm - N/A Rain Light Rain
8:55 AM 62.4 °F 62.2 °F 99% 30.19 in 2.0 mi Calm Calm - 0.05 in Rain Light Rain
9:05 AM 62.6 °F 62.6 °F 100% 30.19 in 3.0 mi Calm Calm - N/A Rain Rain
9:16 AM 62.6 °F 62.6 °F 100% 30.18 in 8.0 mi East 4.6 mph - N/A   Overcast
9:55 AM 64.6 °F 64.0 °F 98% 30.18 in 10.0 mi SE 4.6 mph - 0.02 in   Overcast
10:55 AM 67.6 °F 64.9 °F 91% 30.16 in 10.0 mi SE 9.2 mph - N/A   Overcast
11:55 AM 71.6 °F 65.8 °F 82% 30.12 in 10.0 mi SSE 8.1 mph - N/A   Mostly Cloudy
12:38 PM 77.0 °F 64.4 °F 65% 30.11 in 10.0 mi South 11.5 mph - N/A   Mostly Cloudy
12:43 PM 77.0 °F 64.4 °F 65% 30.10 in 10.0 mi South 9.2 mph - N/A   Overcast
12:55 PM 76.6 °F 64.6 °F 66% 30.10 in 10.0 mi South 11.5 mph - N/A   Overcast
1:55 PM 77.4 °F 64.4 °F 64% 30.09 in 10.0 mi South 10.4 mph - N/A   Mostly Cloudy
2:55 PM 79.5 °F 64.0 °F 59% 30.08 in 10.0 mi South 11.5 mph - N/A   Partly Cloudy
3:55 PM 78.1 °F 63.5 °F 61% 30.08 in 10.0 mi South 12.7 mph 24.2 mph N/A   Scattered Clouds
4:55 PM 74.5 °F 63.3 °F 68% 30.09 in 10.0 mi South 10.4 mph - N/A   Clear
5:55 PM 71.8 °F 63.3 °F 75% 30.11 in 10.0 mi SSE 6.9 mph - N/A   Overcast
6:55 PM 69.8 °F 63.1 °F 79% 30.12 in 10.0 mi South 6.9 mph - N/A   Mostly Cloudy
7:55 PM 69.4 °F 64.2 °F 83% 30.12 in 10.0 mi South 6.9 mph - N/A   Mostly Cloudy
8:55 PM 68.9 °F 64.9 °F 87% 30.12 in 10.0 mi SSE 9.2 mph - N/A   Mostly Cloudy
9:21 PM 69.8 °F 66.2 °F 88% 30.12 in 10.0 mi South 6.9 mph - N/A   Light Drizzle
9:37 PM 68.0 °F 64.4 °F 88% 30.13 in 10.0 mi South 6.9 mph - N/A   Partly Cloudy
9:55 PM 68.2 °F 65.1 °F 90% 30.12 in 10.0 mi SSE 9.2 mph - 0.00 in   Mostly Cloudy
10:23 PM 68.0 °F 64.4 °F 88% 30.13 in 10.0 mi South 4.6 mph - N/A   Overcast
10:55 PM 68.9 °F 65.5 °F 89% 30.13 in 10.0 mi South 8.1 mph - N/A   Overcast
11:07 PM 68.0 °F 66.2 °F 94% 30.13 in 10.0 mi South 6.9 mph - N/A   Overcast
11:31 PM 68.0 °F 66.2 °F 94% 30.13 in 10.0 mi South 6.9 mph - N/A   Mostly Cloudy
11:55 PM 68.7 °F 65.5 °F 89% 30.13 in 10.0 mi South 6.9 mph - N/A   Overcast